Terminal Aerodrome Forecast
Issued by NWS

Home | Current Version | Previous Version | Text Only | Print | Product List | Glossary On
Versions: 1 2 3 4 5 6 7 8 9 10 11 12 13 14 15 16
000
FTUS43 KDLH 231724
TAFHIB
TAF
KHIB 231724Z 2318/2418 18010G17KT P6SM VCSH OVC040
     FM232200 16009KT 5SM -RA OVC015
     FM240000 14004KT 3SM -FZRA OVC007
     FM240300 VRB03KT 3SM -FZRA OVC004
     FM241100 35007KT P6SM OVC007
     FM241500 36010KT P6SM OVC015=

USA.gov is the U.S. government's official web portal to all federal, state and local government web resources and services.